Omak, WA

12:36 AM PST on January 22, 2017 (GMT -0800)
Omak

Weather History for KOMK - April, 2012

Change the Weather History Date:

Thursday, April 5, 2012

  Actual Average Record
Temperature  
Mean Temperature 40 °F 48 °F  
Max Temperature 54 °F 61 °F 75 °F (1934)
Min Temperature 26 °F 35 °F 19 °F (1936)
Degree Days  
Heating Degree Days 25 17  
Month to date heating degree days 116 88  
Since 1 July heating degree days 5956 5678  
Cooling Degree Days 0 0  
Month to date cooling degree days 0 0  
Year to date cooling degree days 0 0  
Moisture  
Dew Point 23 °F    
Average Humidity 52    
Maximum Humidity 82    
Minimum Humidity 22    
Precipitation  
Precipitation T in 0.03 in 0.62 in (1972)
Month to date precipitation 0.22 0.15  
Year to date precipitation 4.32 4.64  
Sea Level Pressure  
Sea Level Pressure 30.05 in    
Wind  
Wind Speed 7 mph (WNW)    
Max Wind Speed 21 mph    
Max Gust Speed 25 mph    
Visibility 10 miles    
Events      
T = Trace of Precipitation, MM = Missing Value Source: NWS Daily Summary

Daily Weather History Graph

Daily Weather History Graph

Search for Another Location

Airport or City:

Trip Planner

Search our weather history database for the weather conditions in past years. The results will help you decide how hot, cold, wet, or windy it might be!

Date:

Astronomy

Apr. 05, 2012 Rise Set
Actual Time 6:26 AM PDT 7:35 PM PDT
Civil Twilight 5:54 AM PDT 8:07 PM PDT
Nautical Twilight 5:16 AM PDT 8:46 PM PDT
Astronomical Twilight 4:34 AM PDT 9:27 PM PDT
Moon 6:47 PM PDT (4/5) 5:29 AM PDT (4/5)
Length of Visible Light 14h 13m
Length of Day
13h 08m
Waxing Gibbous, 98% of the Moon is Illuminated
Apr 5
Waxing Gibbous
Apr 6
Full
Apr 13
Last Quarter
Apr 21
New
Apr 29
First Quarter

Hourly Weather History & Observations

Time (PDT) Temp. Windchill Dew Point Humidity Pressure Visibility Wind Dir Wind Speed Gust Speed Precip Events Conditions
12:53 AM 32.0 °F 27.5 °F 21.9 °F 66% 30.00 in 10.0 mi NNW 4.6 mph - N/A   Clear
1:53 AM 32.0 °F 26.4 °F 21.9 °F 66% 30.01 in 10.0 mi NW 5.8 mph - N/A   Partly Cloudy
2:53 AM 30.9 °F 26.2 °F 21.0 °F 67% 30.02 in 10.0 mi NW 4.6 mph - N/A   Scattered Clouds
3:53 AM 30.0 °F 25.2 °F 19.0 °F 64% 30.03 in 10.0 mi NNW 4.6 mph - N/A   Clear
4:53 AM 30.9 °F - 19.0 °F 61% 30.04 in 10.0 mi Calm Calm - N/A   Clear
5:53 AM 28.9 °F 21.1 °F 21.0 °F 72% 30.05 in 10.0 mi North 8.1 mph - N/A   Clear
6:53 AM 27.0 °F 23.0 °F 19.0 °F 72% 30.07 in 10.0 mi NW 3.5 mph - N/A   Clear
7:53 AM 36.0 °F 32.1 °F 23.0 °F 59% 30.08 in 10.0 mi North 4.6 mph - N/A   Clear
8:53 AM 39.9 °F 35.1 °F 23.0 °F 51% 30.08 in 10.0 mi North 6.9 mph - N/A   Clear
9:53 AM 46.0 °F 41.9 °F 25.0 °F 44% 30.06 in 10.0 mi North 8.1 mph - N/A   Clear
10:53 AM 48.9 °F - 23.0 °F 36% 30.06 in 10.0 mi NNW 9.2 mph - N/A   Clear
11:53 AM 52.0 °F - 17.1 °F 25% 30.04 in 10.0 mi Variable 6.9 mph - N/A   Clear
12:53 PM 52.0 °F - 14.0 °F 22% 30.03 in 10.0 mi SW 6.9 mph - N/A   Clear
1:53 PM 52.0 °F - 14.0 °F 22% 30.02 in 10.0 mi SW 4.6 mph - N/A   Partly Cloudy
2:53 PM 51.1 °F - 14.0 °F 23% 30.01 in 10.0 mi South 4.6 mph - N/A   Clear
3:53 PM 51.1 °F - 21.0 °F 31% 30.01 in 10.0 mi SSE 9.2 mph - N/A   Mostly Cloudy
4:53 PM 48.0 °F - 24.1 °F 39% 30.03 in 10.0 mi South 16.1 mph 24.2 mph 0.00 in   Overcast
5:53 PM 46.0 °F 40.6 °F 27.0 °F 47% 30.04 in 10.0 mi SSE 11.5 mph - N/A   Partly Cloudy
6:53 PM 44.1 °F 40.1 °F 27.0 °F 51% 30.07 in 10.0 mi SSW 6.9 mph - N/A   Overcast
7:53 PM 41.0 °F 33.1 °F 30.0 °F 65% 30.09 in 10.0 mi WNW 15.0 mph 19.6 mph N/A   Mostly Cloudy
8:53 PM 39.0 °F 33.4 °F 30.9 °F 73% 30.10 in 10.0 mi West 8.1 mph - N/A   Clear
9:53 PM 37.9 °F 32.1 °F 30.9 °F 76% 30.10 in 10.0 mi NW 8.1 mph - N/A   Clear
10:53 PM 35.1 °F 31.0 °F 28.9 °F 78% 30.10 in 10.0 mi WSW 4.6 mph - N/A   Clear
11:53 PM 34.0 °F - 28.9 °F 82% 30.09 in 10.0 mi Calm Calm - N/A   Clear